• în Republica Moldova
  • Lista ţărilor
  • Pe 7 zile
  • Temperatura apei
  • Hartă satelitară
  • Meteo pe hartă
  • Widget-uri
  • user-avatar
    Intrare

    Meteo pe oră la Kerns

    Astăzi, 27 Februarie, Luni

    Timp Temperatura Precipitaţii Vânt Presiune Umiditate
    00:00 +25°C° 0,2 mm 4 m/s 757 mmHg 96%
    01:00 +25°C° 0,2 mm 4 m/s 757 mmHg 96%
    02:00 +25°C° 0,2 mm 4 m/s 757 mmHg 96%
    03:00 +26°C° 0,2 mm 4 m/s 757 mmHg 95%
    04:00 +26°C° 0 mm 5 m/s 756 mmHg 95%
    05:00 +26°C° 0,2 mm 5 m/s 757 mmHg 94%
    06:00 +26°C° 0,2 mm 5 m/s 757 mmHg 93%
    07:00 +26°C° 0,2 mm 5 m/s 757 mmHg 92%
    08:00 +28°C° 0,1 mm 5 m/s 757 mmHg 83%
    09:00 +29°C° 0,1 mm 5 m/s 757 mmHg 75%
    10:00 +32°C° 0 mm 6 m/s 758 mmHg 68%
    11:00 +33°C° 0,1 mm 5 m/s 757 mmHg 63%
    12:00 +34°C° 0,1 mm 5 m/s 757 mmHg 58%
    13:00 +35°C° 0,1 mm 5 m/s 757 mmHg 53%
    14:00 +35°C° 0,1 mm 5 m/s 756 mmHg 55%
    15:00 +34°C° 0,1 mm 5 m/s 756 mmHg 56%
    16:00 +34°C° 0 mm 5 m/s 756 mmHg 59%
    17:00 +32°C° 0,1 mm 5 m/s 756 mmHg 68%
    18:00 +29°C° 0,1 mm 5 m/s 756 mmHg 77%
    19:00 +27°C° 0,1 mm 5 m/s 757 mmHg 86%
    20:00 +27°C° 0 mm 4 m/s 757 mmHg 89%
    21:00 +26°C° 0 mm 4 m/s 757 mmHg 92%
    22:00 +25°C° 0 mm 4 m/s 758 mmHg 96%
    23:00 +25°C° 0 mm 4 m/s 757 mmHg 96%

    Mâine, 28 Februarie, Marţi

    Timp Temperatura Precipitaţii Vânt Presiune Umiditate
    00:00 +25°C° 0 mm 4 m/s 757 mmHg 96%
    01:00 +25°C° 0 mm 4 m/s 757 mmHg 96%
    02:00 +25°C° 0,1 mm 4 m/s 757 mmHg 96%
    03:00 +25°C° 0,1 mm 4 m/s 757 mmHg 96%
    04:00 +25°C° 0,1 mm 4 m/s 756 mmHg 96%
    05:00 +25°C° 0,1 mm 4 m/s 757 mmHg 94%
    06:00 +26°C° 0,1 mm 5 m/s 757 mmHg 93%
    07:00 +26°C° 0,1 mm 5 m/s 757 mmHg 92%
    08:00 +27°C° 0,1 mm 5 m/s 757 mmHg 84%
    09:00 +29°C° 0,1 mm 5 m/s 757 mmHg 75%
    10:00 +30°C° 0,1 mm 6 m/s 758 mmHg 67%
    11:00 +32°C° 0,1 mm 6 m/s 757 mmHg 62%
    12:00 +34°C° 0,1 mm 6 m/s 757 mmHg 58%
    13:00 +35°C° 0,1 mm 6 m/s 756 mmHg 53%
    14:00 +34°C° 0 mm 6 m/s 756 mmHg 54%
    15:00 +34°C° 0 mm 6 m/s 756 mmHg 55%
    16:00 +34°C° 0 mm 6 m/s 755 mmHg 57%
    17:00 +32°C° 0 mm 6 m/s 756 mmHg 66%
    18:00 +29°C° 0 mm 5 m/s 756 mmHg 75%
    19:00 +27°C° 0 mm 5 m/s 756 mmHg 84%
    20:00 +26°C° 0,1 mm 5 m/s 757 mmHg 88%
    21:00 +26°C° 0,1 mm 5 m/s 757 mmHg 91%
    22:00 +25°C° 0,1 mm 5 m/s 758 mmHg 95%
    23:00 +25°C° 0,1 mm 5 m/s 757 mmHg 95%

    Poimâine, 1 Martie, Miercuri

    Timp Temperatura Precipitaţii Vânt Presiune Umiditate
    00:00 +25°C° 0,1 mm 5 m/s 757 mmHg 95%
    01:00 +25°C° 0,1 mm 5 m/s 757 mmHg 95%
    02:00 +25°C° 0,1 mm 5 m/s 757 mmHg 94%
    03:00 +25°C° 0,1 mm 4 m/s 756 mmHg 94%
    04:00 +25°C° 0,1 mm 4 m/s 756 mmHg 94%
    05:00 +25°C° 0,1 mm 5 m/s 756 mmHg 94%
    06:00 +26°C° 0,1 mm 5 m/s 757 mmHg 93%
    07:00 +26°C° 0,1 mm 5 m/s 757 mmHg 93%
    08:00 +27°C° 0,1 mm 5 m/s 757 mmHg 85%
    09:00 +29°C° 0,1 mm 5 m/s 757 mmHg 77%
    10:00 +32°C° 0,1 mm 6 m/s 758 mmHg 69%
    11:00 +33°C° 0,1 mm 6 m/s 757 mmHg 64%
    12:00 +34°C° 0,1 mm 6 m/s 756 mmHg 59%
    13:00 +35°C° 0,1 mm 6 m/s 756 mmHg 54%
    14:00 +35°C° 0 mm 6 m/s 755 mmHg 55%
    15:00 +34°C° 0 mm 6 m/s 755 mmHg 57%
    16:00 +34°C° 0 mm 6 m/s 754 mmHg 59%
    17:00 +32°C° 0 mm 5 m/s 755 mmHg 68%
    18:00 +29°C° 0 mm 5 m/s 755 mmHg 77%
    19:00 +28°C° 0 mm 5 m/s 756 mmHg 85%
    20:00 +27°C° 0,3 mm 5 m/s 756 mmHg 88%
    21:00 +27°C° 0,3 mm 5 m/s 757 mmHg 91%
    22:00 +26°C° 0,3 mm 5 m/s 757 mmHg 94%
    23:00 +26°C° 0,8 mm 5 m/s 757 mmHg 94%

    2 Martie, Joi

    Timp Temperatura Precipitaţii Vânt Presiune Umiditate
    00:00 +26°C° 0,8 mm 4 m/s 756 mmHg 94%
    01:00 +26°C° 0,8 mm 4 m/s 756 mmHg 94%
    02:00 +26°C° 1 mm 4 m/s 756 mmHg 94%
    03:00 +26°C° 1 mm 4 m/s 755 mmHg 95%
    04:00 +26°C° 1 mm 4 m/s 755 mmHg 95%
    05:00 +26°C° 0,3 mm 4 m/s 755 mmHg 94%
    06:00 +26°C° 0,3 mm 4 m/s 756 mmHg 93%
    07:00 +27°C° 0,3 mm 4 m/s 756 mmHg 92%
    08:00 +28°C° 0,4 mm 4 m/s 756 mmHg 83%
    09:00 +30°C° 0,4 mm 4 m/s 757 mmHg 74%
    10:00 +33°C° 0,4 mm 4 m/s 757 mmHg 66%
    11:00 +34°C° 0,2 mm 4 m/s 756 mmHg 64%
    12:00 +35°C° 0,2 mm 4 m/s 756 mmHg 62%
    13:00 +35°C° 0,2 mm 4 m/s 755 mmHg 60%
    14:00 +35°C° 0,2 mm 4 m/s 755 mmHg 64%
    15:00 +34°C° 0,2 mm 4 m/s 754 mmHg 68%
    16:00 +33°C° 0,2 mm 4 m/s 754 mmHg 72%
    17:00 +32°C° 0,1 mm 4 m/s 754 mmHg 78%
    18:00 +29°C° 0,1 mm 4 m/s 755 mmHg 85%
    19:00 +28°C° 0,1 mm 3 m/s 755 mmHg 92%
    20:00 +27°C° 0,4 mm 3 m/s 756 mmHg 94%
    21:00 +27°C° 0,4 mm 3 m/s 756 mmHg 96%
    22:00 +27°C° 0,4 mm 2 m/s 757 mmHg 97%
    23:00 +27°C° 0,6 mm 2 m/s 756 mmHg 97%

    3 Martie, Vineri

    Timp Temperatura Precipitaţii Vânt Presiune Umiditate
    00:00 +27°C° 0,6 mm 2 m/s 756 mmHg 97%
    01:00 +27°C° 0,6 mm 1 m/s 756 mmHg 97%
    02:00 +26°C° 0,4 mm 2 m/s 755 mmHg 97%
    03:00 +26°C° 0,4 mm 2 m/s 755 mmHg 97%
    04:00 +26°C° 0,4 mm 2 m/s 755 mmHg 97%
    05:00 +26°C° 0,2 mm 2 m/s 755 mmHg 97%
    06:00 +26°C° 0,2 mm 2 m/s 756 mmHg 97%
    07:00 +26°C° 0,2 mm 2 m/s 756 mmHg 97%
    08:00 +28°C° 0 mm 2 m/s 756 mmHg 91%
    09:00 +29°C° 0 mm 3 m/s 757 mmHg 86%
    10:00 +30°C° 0 mm 3 m/s 757 mmHg 81%
    11:00 +31°C° 0,1 mm 3 m/s 756 mmHg 75%
    12:00 +34°C° 0,1 mm 3 m/s 756 mmHg 70%
    13:00 +35°C° 0,1 mm 3 m/s 755 mmHg 64%
    14:00 +35°C° 0,3 mm 3 m/s 755 mmHg 66%
    15:00 +34°C° 0,3 mm 3 m/s 754 mmHg 67%
    16:00 +34°C° 0,3 mm 3 m/s 754 mmHg 69%
    17:00 +31°C° 0,2 mm 3 m/s 754 mmHg 76%
    18:00 +29°C° 0,2 mm 3 m/s 755 mmHg 84%
    19:00 +28°C° 0,2 mm 3 m/s 755 mmHg 92%
    20:00 +27°C° 0,1 mm 2 m/s 756 mmHg 93%
    21:00 +27°C° 0,1 mm 2 m/s 756 mmHg 95%
    22:00 +27°C° 0,1 mm 2 m/s 757 mmHg 97%
    23:00 +26°C° 0,5 mm 2 m/s 756 mmHg 97%

    4 Martie, Sâmbătă

    Timp Temperatura Precipitaţii Vânt Presiune Umiditate
    00:00 +26°C° 0,5 mm 2 m/s 756 mmHg 97%
    01:00 +26°C° 0,5 mm 2 m/s 756 mmHg 97%
    02:00 +26°C° 0 mm 2 m/s 755 mmHg 97%
    03:00 +26°C° 0 mm 2 m/s 755 mmHg 96%
    04:00 +26°C° 0 mm 2 m/s 755 mmHg 96%
    05:00 +26°C° 0 mm 2 m/s 755 mmHg 94%
    06:00 +26°C° 0 mm 2 m/s 756 mmHg 92%
    07:00 +26°C° 0 mm 2 m/s 756 mmHg 91%
    08:00 +28°C° 0,7 mm 3 m/s 756 mmHg 83%
    09:00 +30°C° 0,7 mm 3 m/s 756 mmHg 75%
    10:00 +33°C° 0,7 mm 3 m/s 757 mmHg 68%
    11:00 +34°C° 1,1 mm 3 m/s 756 mmHg 66%
    12:00 +34°C° 1,1 mm 3 m/s 755 mmHg 64%
    13:00 +35°C° 1,1 mm 3 m/s 755 mmHg 63%
    14:00 +35°C° 0,4 mm 3 m/s 755 mmHg 65%
    15:00 +34°C° 0,4 mm 3 m/s 754 mmHg 67%
    16:00 +34°C° 0,4 mm 3 m/s 754 mmHg 69%
    17:00 +31°C° 0,6 mm 2 m/s 754 mmHg 76%
    18:00 +30°C° 0,6 mm 2 m/s 755 mmHg 83%
    19:00 +28°C° 0,6 mm 2 m/s 755 mmHg 90%
    20:00 +28°C° 0,3 mm 2 m/s 756 mmHg 92%
    21:00 +28°C° 0,3 mm 2 m/s 756 mmHg 95%
    22:00 +27°C° 0,3 mm 1 m/s 756 mmHg 97%
    23:00 +27°C° 0,1 mm 2 m/s 756 mmHg 97%
    Arată mai mult